| time (UTC) | temp F | wind direction | speed knots | gust knots | rain 1hr in | rain 24hr in | rain mn in | humidity % | barometer mb |
| 20260505040821 | 62 | 0.0 | 1.7 | 0.00 | 0.00 | 0.00 | 87 | 1010.8 | |
| 20260505035822 | 61 | 0.0 | 0.0 | 0.00 | 0.00 | 0.00 | 86 | 1010.7 | |
| 20260505034823 | 61 | 0.0 | 0.0 | 0.00 | 0.00 | 0.00 | 84 | 1010.7 | |
| 20260505033822 | 62 | 0.0 | 0.0 | 0.00 | 0.00 | 0.00 | 81 | 1010.7 | |
| 20260505032823 | 62 | 0.0 | 0.0 | 0.00 | 0.00 | 0.00 | 77 | 1010.8 | |
| 20260505031818 | 63 | 0.0 | 0.0 | 0.00 | 0.00 | 0.00 | 74 | 1010.8 | |
| 20260505030826 | 64 | 0.0 | 0.0 | 0.00 | 0.00 | 0.00 | 73 | 1010.8 | |
| 20260505025827 | 64 | 141 | 2.6 | 3.5 | 0.00 | 0.00 | 0.00 | 72 | 1010.8 |
| 20260505024848 | 63 | 216 | 0.9 | 3.5 | 0.00 | 0.00 | 0.00 | 73 | 1010.7 |
| 20260505023831 | 62 | 0.0 | 0.0 | 0.00 | 0.00 | 0.00 | 74 | 1010.7 | |
| 20260505022832 | 62 | 180 | 0.0 | 0.9 | 0.00 | 0.00 | 0.00 | 74 | 1010.8 |
| 20260505021833 | 63 | 0.0 | 0.0 | 0.00 | 0.00 | 0.00 | 69 | 1010.8 | |
| 20260505020836 | 64 | 0.0 | 0.0 | 0.00 | 0.00 | 0.00 | 68 | 1010.7 | |
| 20260505015817 | 64 | 0.0 | 0.0 | 0.00 | 0.00 | 0.00 | 68 | 1010.6 | |
| 20260505014818 | 65 | 135 | 0.9 | 1.7 | 0.00 | 0.00 | 0.00 | 68 | 1010.5 |
| 20260505013840 | 65 | 180 | 0.0 | 0.9 | 0.00 | 0.00 | 0.00 | 68 | 1010.5 |
| 20260505012821 | 66 | 135 | 1.7 | 2.6 | 0.00 | 0.00 | 0.00 | 67 | 1010.4 |
| 20260505011822 | 66 | 126 | 2.6 | 5.2 | 0.00 | 0.00 | 0.00 | 67 | 1010.3 |
| 20260505010823 | 65 | 0.0 | 0.0 | 0.00 | 0.00 | 0.00 | 66 | 1010.2 | |
| 20260505005825 | 66 | 0.0 | 0.0 | 0.00 | 0.00 | 0.00 | 65 | 1010.1 | |
| 20260505004820 | 66 | 0.0 | 1.7 | 0.00 | 0.00 | 0.00 | 64 | 1010.1 | |
| 20260505003827 | 66 | 135 | 0.9 | 1.7 | 0.00 | 0.00 | 0.00 | 63 | 1010.1 |
| 20260505002828 | 66 | 0.9 | 1.7 | 0.00 | 0.00 | 0.00 | 63 | 1010.1 | |
| 20260505001829 | 66 | 135 | 0.0 | 1.7 | 0.00 | 0.00 | 0.00 | 62 | 1010.1 |
| 20260505000831 | 67 | 239 | 0.9 | 1.7 | 0.00 | 0.00 | 0.00 | 61 | 1010.1 |
| 20260504235832 | 68 | 151 | 1.7 | 4.3 | 0.00 | 0.00 | 0.00 | 59 | 1010.1 |
| 20260504234835 | 68 | 113 | 2.6 | 6.1 | 0.00 | 0.00 | 0.00 | 60 | 1010.0 |
| 20260504233816 | 68 | 180 | 0.9 | 3.5 | 0.00 | 0.00 | 0.00 | 59 | 1010.0 |
| 20260504232817 | 68 | 157 | 1.7 | 2.6 | 0.00 | 0.00 | 0.00 | 58 | 1010.1 |
| 20260504231818 | 69 | 161 | 1.7 | 2.6 | 0.00 | 0.00 | 0.00 | 57 | 1010.1 |
| 20260504230818 | 70 | 166 | 2.6 | 4.3 | 0.00 | 0.00 | 0.00 | 56 | 1010.1 |
| 20260504225819 | 70 | 0.0 | 0.9 | 0.00 | 0.00 | 0.00 | 55 | 1010.0 | |
| 20260504224820 | 70 | 0.0 | 2.6 | 0.00 | 0.00 | 0.00 | 54 | 1010.1 | |
| 20260504223822 | 70 | 164 | 2.6 | 4.3 | 0.00 | 0.00 | 0.00 | 54 | 1010.1 |
| 20260504222838 | 71 | 124 | 1.7 | 3.5 | 0.00 | 0.00 | 0.00 | 53 | 1010.0 |
| 20260504221825 | 71 | 152 | 4.3 | 6.1 | 0.00 | 0.00 | 0.00 | 53 | 1010.0 |
| 20260504220846 | 71 | 113 | 0.9 | 1.7 | 0.00 | 0.00 | 0.00 | 53 | 1010.1 |
| 20260504215848 | 71 | 128 | 1.7 | 5.2 | 0.00 | 0.00 | 0.00 | 53 | 1010.2 |
| 20260504214829 | 71 | 134 | 2.6 | 4.3 | 0.00 | 0.00 | 0.00 | 51 | 1010.2 |
| 20260504213830 | 72 | 194 | 1.7 | 3.5 | 0.00 | 0.00 | 0.00 | 51 | 1010.2 |
| 20260504212832 | 72 | 113 | 0.9 | 2.6 | 0.00 | 0.00 | 0.00 | 51 | 1010.1 |
| 20260504211815 | 72 | 180 | 1.7 | 5.2 | 0.00 | 0.00 | 0.00 | 50 | 1010.2 |
| 20260504210816 | 72 | 175 | 3.5 | 5.2 | 0.00 | 0.00 | 0.00 | 49 | 1010.2 |
| 20260504205837 | 73 | 60 | 0.9 | 1.7 | 0.00 | 0.00 | 0.00 | 50 | 1010.3 |
| 20260504204818 | 73 | 174 | 2.6 | 4.3 | 0.00 | 0.00 | 0.00 | 48 | 1010.4 |
| 20260504203815 | 73 | 185 | 3.5 | 5.2 | 0.00 | 0.00 | 0.00 | 48 | 1010.4 |
| 20260504202836 | 74 | 158 | 0.0 | 0.9 | 0.00 | 0.00 | 0.00 | 49 | 1010.5 |
| 20260504201817 | 74 | 165 | 1.7 | 3.5 | 0.00 | 0.00 | 0.00 | 47 | 1010.7 |
| 20260504200819 | 74 | 180 | 0.0 | 1.7 | 0.00 | 0.00 | 0.00 | 48 | 1010.9 |
| 20260504195840 | 74 | 101 | 0.9 | 1.7 | 0.00 | 0.00 | 0.00 | 49 | 1011.1 |
| 20260504194841 | 74 | 195 | 2.6 | 3.5 | 0.00 | 0.00 | 0.00 | 48 | 1011.3 |
| 20260504193822 | 73 | 135 | 1.7 | 2.6 | 0.00 | 0.00 | 0.00 | 48 | 1011.3 |
| 20260504192824 | 73 | 104 | 3.5 | 4.3 | 0.00 | 0.00 | 0.00 | 47 | 1011.4 |
| 20260504191825 | 73 | 203 | 1.7 | 5.2 | 0.00 | 0.00 | 0.00 | 48 | 1011.7 |
| 20260504190825 | 74 | 168 | 2.6 | 5.2 | 0.00 | 0.00 | 0.00 | 48 | 1011.8 |
| 20260504185827 | 74 | 146 | 1.7 | 3.5 | 0.00 | 0.00 | 0.00 | 49 | 1012.0 |
| 20260504184821 | 73 | 153 | 2.6 | 4.3 | 0.00 | 0.00 | 0.00 | 49 | 1012.1 |
| 20260504183827 | 73 | 169 | 1.7 | 2.6 | 0.00 | 0.00 | 0.00 | 49 | 1012.1 |
| 20260504182828 | 73 | 172 | 2.6 | 7.0 | 0.00 | 0.00 | 0.00 | 48 | 1012.0 |
| 20260504181829 | 73 | 112 | 3.5 | 4.3 | 0.00 | 0.00 | 0.00 | 47 | 1012.2 |
| 20260504180851 | 74 | 158 | 1.7 | 4.3 | 0.00 | 0.00 | 0.00 | 49 | 1012.4 |
| 20260504175832 | 73 | 143 | 2.6 | 4.3 | 0.00 | 0.00 | 0.00 | 48 | 1012.5 |
| 20260504174815 | 73 | 163 | 2.6 | 4.3 | 0.00 | 0.00 | 0.00 | 47 | 1012.7 |
| 20260504173836 | 73 | 198 | 1.7 | 3.5 | 0.00 | 0.00 | 0.00 | 50 | 1012.7 |
| 20260504172817 | 72 | 199 | 1.7 | 4.3 | 0.00 | 0.00 | 0.00 | 50 | 1012.8 |
| 20260504171819 | 72 | 191 | 3.5 | 6.1 | 0.00 | 0.00 | 0.00 | 49 | 1012.8 |
| 20260504170819 | 72 | 180 | 0.9 | 1.7 | 0.00 | 0.00 | 0.00 | 50 | 1013.2 |
| 20260504150829 | 66 | 169 | 0.9 | 2.6 | 0.00 | 0.00 | 0.00 | 56 | 1014.5 |
| 20260504140829 | 62 | 135 | 0.9 | 2.6 | 0.00 | 0.00 | 0.00 | 64 | 1014.6 |
| 20260504130818 | 58 | 13 | 0.9 | 1.7 | 0.00 | 0.00 | 0.00 | 70 | 1015.1 |
| 20260504081821 | 40 | 0.0 | 0.0 | 0.00 | 0.00 | 0.00 | 99 | 1015.8 | |
| 20260504080842 | 40 | 0.0 | 0.0 | 0.00 | 0.00 | 0.00 | 99 | 1015.8 | |
| 20260504045831 | 41 | 0.0 | 0.0 | 0.00 | 0.00 | 0.00 | 96 | 1015.9 | |
| 20260504044832 | 41 | 0.0 | 0.0 | 0.00 | 0.00 | 0.00 | 96 | 1015.9 | |
| 20260504043819 | 41 | 0.0 | 0.0 | 0.00 | 0.00 | 0.00 | 93 | 1015.9 | |
| 20260504042840 | 41 | 0.0 | 0.0 | 0.00 | 0.00 | 0.00 | 93 | 1015.8 | |
| 20260504041821 | 41 | 0.0 | 0.0 | 0.00 | 0.00 | 0.00 | 92 | 1015.6 |